Location: Newark
(45.5000°N, 11.4167°E)
Time: 19:58:51
(UTC+00:00)

S-56A Canister/Altair - Visible Passes

Search period start: 18 August 2019 00:00
Search period end: 28 August 2019 00:00
Orbit: 633 x 2499 km, 38.9° (Epoch: 17 August)

Date Brightness Start Highest point End Pass type
(mag) Time Alt. Az. Time Alt. Az. Time Alt. Az.
18 Aug 9.3 01:01:39 26° SE 01:01:39 26° SE 01:05:12 10° ESE visible
18 Aug 9.3 02:59:08 18° WSW 03:02:16 24° SSW 03:08:53 10° SSE visible
19 Aug 10.2 00:31:29 12° ESE 00:31:29 12° ESE 00:32:07 10° ESE visible
19 Aug 9.0 02:28:59 25° SSW 02:29:34 25° SSW 02:35:51 10° SSE visible
20 Aug 9.4 01:58:57 22° S 01:58:57 22° S 02:02:51 10° SSE visible
21 Aug 10.1 01:29:03 13° SSE 01:29:03 13° SSE 01:29:53 10° SE visible
21 Aug 9.9 03:27:22 10° SW 03:27:49 10° SSW 03:28:16 10° SSW visible
21 Aug 9.6 20:41:51 10° SW 20:41:51 10° SW 20:41:51 10° SW visible
22 Aug 8.9 20:09:24 10° SSW 20:11:25 18° SSW 20:11:25 18° SSW visible
23 Aug 8.5 19:36:55 10° SSW 19:40:39 21° SSE 19:40:53 21° SSE visible
24 Aug 8.7 19:04:22 10° SSW 19:08:09 20° SSE 19:10:14 15° SE visible
24 Aug 9.5 21:06:56 10° WSW 21:07:40 14° WSW 21:07:40 14° WSW visible
25 Aug 9.0 18:31:47 10° SSW 18:35:38 19° SSE 18:38:56 10° ESE visible
25 Aug 8.6 20:34:19 10° WSW 20:36:57 26° SW 20:36:57 26° SW visible
26 Aug 7.9 20:01:37 10° WSW 20:06:09 34° S 20:06:09 34° S visible
27 Aug 8.1 19:28:51 10° SW 19:33:44 33° S 19:35:18 27° SE visible
27 Aug 9.8 21:32:36 10° WSW 21:32:44 11° WSW 21:32:44 11° WSW visible
